ゲーレルス第2彗星

78P/Gehrels 2 (2019)

English version
Home page
Updated on July 31, 2021

---------------------------------------------------------------------

・ プロフィール

・ 写真集

・ 軌道要素

Epoch 2019 Mar. 18.0 TT = JDT 2458560.5
T 2019 Apr. 2.76433 TT                                  Rudenko
q   2.0137749            (2000.0)            P               Q
n   0.13625603     Peri.  192.69286     +0.72913738     -0.68212772
a   3.7402351      Node   210.54853     +0.63702432     +0.70601945
e   0.4615914      Incl.    6.24863     +0.25011738     +0.19036365
P   7.23
From 5704 observations 1973 Sept. 29-2020 May 26, mean residual 1".6.
     Nongravitational parameters A1 = +0.04, A2 = +0.0391.

・ 星図

・ 光度変化

        m1 =  1.0 + 5 logΔ + 30.0 log r  [   ,  0]  (              〜2019年 4月 2日)
        m1 =  4.0 + 5 logΔ + 20.0 log r  [  0,190]  (2019年 4月 2日〜2019年10月 9日)
        m1 =  0.0 + 5 logΔ + 30.0 log r  [190,375]  (2019年10月 9日〜2020年 4月11日)
        m1 = 10.5 + 5 logΔ + 10.0 log r  [375,   ]  (2020年 4月11日〜               )

---------------------------------------------------------------------

軌道要素はM.P.E.C. 2021-O56に掲載されたものです。
星図はステラナビゲータ Ver.8 (アストロアーツ) で作成したものです。
光度グラフはComet for Windowsで作成したものです。

---------------------------------------------------------------------

Copyright(C) Seiichi Yoshida (comet@aerith.net). All rights reserved.